Date String (YYYY-MM-DD hh:mm:ss) UTC,Instrument flags,Ambient pressure (hPa),Sample flow (lpm),Bypass flow (lpm),Sample temperature (°C),Ambient temperature (°C),ASC tube jacket temperature (°C),LED temperature (°C),Box temperature (°C),Sample RH (%),Span deviation,Mass concentration (μg/m³),Mass concentration (μg/m³),Mass concentration (μg/m³)
DateTimeUTC,F1_M11,P_M11,Q1_M11,Q2_M11,T1_M11,T2_M11,T3_M11,T4_M11,T5_M11,U1_M11,ZSPAN_M11,X0_M11,X2_M11,X1_M11
2022-07-04 00:00:00,,0825.5,5.00,0.00,29.2,28.0,00.0,37.9,31.2,27.8,0000.0,0004.46,0002.61,0001.85
2022-07-04 00:01:00,,0825.5,5.01,0.00,29.2,28.1,00.0,37.9,31.2,27.4,0000.0,0004.32,0002.59,0001.83
2022-07-04 00:02:00,,0825.5,5.00,0.00,29.2,28.2,00.0,37.9,31.3,27.4,0000.0,0004.01,0002.53,0001.83
2022-07-04 00:03:00,,0825.5,4.99,0.00,29.3,28.3,00.0,37.9,31.3,27.0,0000.0,0003.95,0002.54,0001.82
2022-07-04 00:04:00,,0825.5,5.01,0.00,29.3,28.3,00.0,38.0,31.3,26.6,0000.0,0003.99,0002.55,0001.80
2022-07-04 00:05:00,,0825.4,5.00,0.00,29.3,27.7,00.0,37.9,31.2,26.7,0000.0,0004.03,0002.54,0001.79
2022-07-04 00:06:00,,0825.4,5.00,0.00,29.3,27.0,00.0,37.9,31.1,26.6,0000.0,0004.04,0002.49,0001.77
2022-07-04 00:07:00,,0825.4,5.01,0.00,29.2,26.7,00.0,37.9,31.0,26.8,0000.0,0003.77,0002.38,0001.75
2022-07-04 00:08:00,,0825.4,4.99,0.00,29.1,26.8,00.0,37.9,30.9,26.7,0000.0,0003.67,0002.33,0001.72
2022-07-04 00:09:00,,0825.4,5.00,0.00,29.1,26.9,00.0,37.9,30.9,26.3,0000.0,0003.72,0002.33,0001.71
2022-07-04 00:10:00,,0825.4,5.00,0.00,29.1,27.1,00.0,37.9,30.9,26.5,0000.0,0003.72,0002.31,0001.69
2022-07-04 00:11:00,,0825.4,5.01,0.00,29.1,27.3,00.0,37.9,31.0,26.1,0000.0,0003.63,0002.26,0001.66
2022-07-04 00:12:00,,0825.4,5.01,0.00,29.1,27.5,00.0,37.9,31.0,26.0,0000.0,0003.53,0002.19,0001.62
2022-07-04 00:13:00,,0825.4,4.99,0.00,29.1,27.7,00.0,37.9,31.1,26.4,0000.0,0003.61,0002.19,0001.59
2022-07-04 00:14:00,,0825.4,5.00,0.00,29.1,27.8,00.0,37.9,31.1,25.9,0000.0,0003.55,0002.12,0001.57
2022-07-04 00:15:00,,0825.4,5.00,0.00,29.2,28.0,00.0,37.9,31.2,25.8,0000.0,0003.48,0002.08,0001.56
2022-07-04 00:16:00,,0825.4,5.00,0.00,29.2,28.1,00.0,37.9,31.2,25.8,0000.0,0003.40,0002.04,0001.54
2022-07-04 00:17:00,,0825.4,4.99,0.00,29.2,28.2,00.0,37.9,31.3,25.2,0000.0,0003.18,0001.98,0001.53
2022-07-04 00:18:00,,0825.4,5.00,0.00,29.3,28.3,00.0,38.0,31.3,25.5,0000.0,0003.46,0001.97,0001.53
2022-07-04 00:19:00,,0825.4,4.99,0.00,29.3,28.4,00.0,38.0,31.3,25.6,0000.0,0003.80,0001.99,0001.53
2022-07-04 00:20:00,,0825.3,5.00,0.00,29.3,28.1,00.0,38.0,31.3,25.7,0000.0,0003.74,0001.98,0001.54
2022-07-04 00:21:00,,0825.4,5.00,0.00,29.3,27.3,00.0,37.9,31.2,26.0,0000.0,0003.91,0001.98,0001.55
2022-07-04 00:22:00,,0825.3,5.00,0.00,29.3,26.9,00.0,37.9,31.0,26.6,0000.0,0004.00,0002.03,0001.57
2022-07-04 00:23:00,,0825.4,5.00,0.00,29.2,26.8,00.0,37.9,31.0,27.1,0000.0,0004.11,0002.09,0001.59
2022-07-04 00:24:00,,0825.3,4.99,0.00,29.1,26.9,00.0,37.9,30.9,27.9,0000.0,0004.20,0002.15,0001.62
2022-07-04 00:25:00,,0825.4,5.00,0.00,29.1,27.1,00.0,37.9,30.9,27.9,0000.0,0004.51,0002.22,0001.64
2022-07-04 00:26:00,,0825.3,5.00,0.00,29.1,27.3,00.0,37.9,31.0,28.0,0000.0,0005.31,0002.30,0001.68
2022-07-04 00:27:00,,0825.3,4.99,0.00,29.1,27.4,00.0,37.9,31.0,27.7,0000.0,0005.42,0002.35,0001.69
2022-07-04 00:28:00,,0825.3,4.99,0.00,29.1,27.6,00.0,37.9,31.0,27.6,0000.0,0005.61,0002.41,0001.70
2022-07-04 00:29:00,,0825.4,5.01,0.00,29.1,27.8,00.0,37.9,31.1,27.6,0000.0,0005.74,0002.45,0001.72
2022-07-04 00:30:00,,0825.3,4.99,0.00,29.1,27.9,00.0,37.9,31.1,27.7,0000.0,0005.90,0002.44,0001.72
2022-07-04 00:31:00,,0825.4,5.00,0.00,29.2,28.0,00.0,37.9,31.2,27.6,0000.0,0005.87,0002.41,0001.70
2022-07-04 00:32:00,,0825.3,5.00,0.00,29.2,28.1,00.0,37.9,31.2,27.4,0000.0,0005.60,0002.38,0001.68
2022-07-04 00:33:00,,0825.3,5.00,0.00,29.3,28.2,00.0,37.9,31.3,27.1,0000.0,0005.57,0002.39,0001.66
2022-07-04 00:34:00,,0825.3,5.00,0.00,29.3,28.3,00.0,38.0,31.3,27.1,0000.0,0006.34,0002.37,0001.61
2022-07-04 00:35:00,,0825.3,5.00,0.00,29.3,28.4,00.0,38.0,31.4,27.5,0000.0,0006.44,0002.31,0001.56
2022-07-04 00:36:00,,0825.3,5.01,0.00,29.4,28.1,00.0,38.0,31.3,27.7,0000.0,0006.86,0002.27,0001.52
2022-07-04 00:37:00,,0825.3,5.00,0.00,29.3,27.5,00.0,37.9,31.2,28.0,0000.0,0006.77,0002.16,0001.48
2022-07-04 00:38:00,,0825.3,5.00,0.00,29.3,27.4,00.0,37.9,31.2,28.1,0000.0,0007.45,0002.13,0001.45
2022-07-04 00:39:00,,0825.3,5.00,0.00,29.3,27.4,00.0,37.9,31.1,28.1,0000.0,0007.53,0002.09,0001.44
2022-07-04 00:40:00,,0825.2,4.99,0.00,29.2,27.5,00.0,37.9,31.1,28.2,0000.0,0007.46,0002.08,0001.41
2022-07-04 00:41:00,,0825.2,5.01,0.00,29.2,27.6,00.0,37.9,31.1,28.1,0000.0,0006.82,0002.05,0001.40
2022-07-04 00:42:00,,0825.2,5.00,0.00,29.2,27.8,00.0,37.9,31.2,28.3,0000.0,0007.65,0002.02,0001.40
2022-07-04 00:43:00,,0825.2,5.00,0.00,29.2,27.9,00.0,38.0,31.2,28.6,0000.0,0007.77,0002.03,0001.41
2022-07-04 00:44:00,,0825.2,4.99,0.00,29.3,28.0,00.0,38.0,31.2,28.8,0000.0,0008.06,0001.99,0001.44
2022-07-04 00:45:00,,0825.2,5.02,0.00,29.3,28.1,00.0,38.0,31.3,28.9,0000.0,0007.65,0001.94,0001.47
2022-07-04 00:46:00,,0825.2,5.01,0.00,29.3,28.2,00.0,38.0,31.3,29.1,0000.0,0007.58,0001.96,0001.50
2022-07-04 00:47:00,,0825.2,5.00,0.00,29.4,28.3,00.0,38.0,31.4,29.0,0000.0,0007.13,0002.01,0001.54
2022-07-04 00:48:00,,0825.2,5.00,0.00,29.4,28.4,00.0,38.0,31.4,29.0,0000.0,0006.53,0002.06,0001.56
2022-07-04 00:49:00,,0825.2,5.00,0.00,29.4,28.0,00.0,38.0,31.3,29.1,0000.0,0005.80,0002.08,0001.59
2022-07-04 00:50:00,,0825.2,4.99,0.00,29.3,27.2,00.0,38.0,31.2,29.0,0000.0,0005.41,0002.08,0001.59
2022-07-04 00:51:00,,0825.2,5.01,0.00,29.3,26.9,00.0,37.9,31.1,29.7,0000.0,0005.44,0002.06,0001.60
2022-07-04 00:52:00,,0825.2,5.00,0.00,29.2,26.8,00.0,37.9,31.0,30.0,0000.0,0005.62,0002.11,0001.61
2022-07-04 00:53:00,,0825.2,4.99,0.00,29.2,26.9,00.0,37.9,30.9,30.1,0000.0,0004.94,0002.14,0001.62
2022-07-04 00:54:00,,0825.2,4.98,0.00,29.1,27.1,00.0,37.9,31.0,30.1,0000.0,0004.48,0002.18,0001.62
2022-07-04 00:55:00,,0825.2,5.01,0.00,29.1,27.3,00.0,37.9,31.0,30.0,0000.0,0004.09,0002.24,0001.62
2022-07-04 00:56:00,,0825.2,5.00,0.00,29.1,27.5,00.0,37.9,31.0,30.1,0000.0,0004.11,0002.30,0001.63
2022-07-04 00:57:00,,0825.2,5.01,0.00,29.1,27.6,00.0,37.9,31.1,30.0,0000.0,0004.10,0002.32,0001.62
2022-07-04 00:58:00,,0825.2,5.00,0.00,29.2,27.8,00.0,37.9,31.1,30.2,0000.0,0004.60,0002.28,0001.61
2022-07-04 00:59:00,,0825.2,5.00,0.00,29.2,27.9,00.0,37.9,31.1,30.1,0000.0,0004.48,0002.24,0001.60
